Hourly Data Report for October 06, 2019

All times are specified in Local Standard Time (LST). Add 1 hour to adjust for Daylight Saving Time where and when it is observed.

ABBOTSFORD A
BRITISH COLUMBIA
Current Station Operator: NAVCAN

49°01'31.000" N
122°21'36.000" W
59.10 m
1100031
71108
YXX

Download Data

Hourly Data (October 2019)
Hourly Data Report for October 6, 2019
TIME Temp Definition
°C
Dew Point Definition
°C
Rel Hum Definition
%
Wind Dir Definition
10's deg

Wind Spd Definition
km/h
Visibility Definition
km
Stn Press Definition
kPa
Hmdx Definition


Wind Chill Definition


Weather Definition


00:00 5.5 5.0 96 36 2 16.1 102.32     LegendNANA
01:00 6.0 5.5 96 31 3 12.9 102.35     Clear
02:00
03:00 5.0 4.6 97 36 5 4.8 102.29     LegendNANA
04:00 6.0 5.7 98 1 6 12.9 102.26     Clear
05:00 5.4 5.1 98 1 8 24.1 102.22     LegendNANA
06:00 5.7 5.4 98 36 7 48.3 102.22     LegendNANA
07:00 4.7 4.5 98 3 5 48.3 102.21     Mainly Clear
08:00 8.0 7.7 98 36 7 48.3 102.18     LegendNANA
09:00 9.6 7.8 88 3 9 48.3 102.14     LegendNANA
10:00 11.4 7.7 78 3 3 48.3 102.10     Mostly Cloudy
11:00 13.1 7.4 68 4 3 48.3 102.04     LegendNANA
12:00 14.0 7.8 66 33 5 48.3 101.99     LegendNANA
13:00 14.5 6.8 60 35 6 48.3 101.90     Mostly Cloudy
14:00 14.8 7.3 61 35 4 48.3 101.80     LegendNANA
15:00 15.3 8.5 63 34 3 48.3 101.72     LegendNANA
16:00 14.7 8.2 65 32 9 48.3 101.66     Cloudy
17:00 13.6 8.1 69 31 7 48.3 101.61     LegendNANA
18:00 12.7 7.5 70 33 3 24.1 101.55     LegendNANA
19:00 12.2 8.1 76 2 7 16.1 101.49     Cloudy
20:00 12.2 7.9 75 35 5 16.1 101.46     LegendNANA
21:00 11.6 8.5 81 2 4 16.1 101.40     LegendNANA
22:00 11.4 8.9 85 36 4 16.1 101.35     Cloudy
23:00 11.1 9.1 87 3 7 16.1 101.31     LegendNANA

Notes on Data Quality.

Legend

  • E = Estimated
  • M = Missing
  • NA = Not Available
Date modified: